Madison, SD

9:32 AM CDT on March 26, 2017 (GMT -0500)
Madison Municipal

Weather History for KMDS - December, 2013

Change the Weather History Date:

Tuesday, December 3, 2013

  Actual Average Record
Temperature  
Mean Temperature 28 °F -  
Max Temperature 32 °F 29 °F 53 °F (2012)
Min Temperature 23 °F 11 °F 8 °F (2015)
Degree Days  
Heating Degree Days 38    
Moisture  
Dew Point 27 °F    
Average Humidity 100    
Maximum Humidity 100    
Minimum Humidity 100    
Precipitation  
Precipitation 1.18 in - - ()
Sea Level Pressure  
Sea Level Pressure 29.66 in    
Wind  
Wind Speed 12 mph (NNE)    
Max Wind Speed 16 mph    
Max Gust Speed 21 mph    
Visibility 6 miles    
Events Fog , Rain , Snow    
Averages and records for this station are not official NWS values.
T = Trace of Precipitation, MM = Missing Value Source: NWS Daily Summary

Daily Weather History Graph

Daily Weather History Graph

Search for Another Location

Airport or City:

Trip Planner

Search our weather history database for the weather conditions in past years. The results will help you decide how hot, cold, wet, or windy it might be!

Date:

Astronomy

Dec. 03, 2013 Rise Set
Actual Time 7:45 AM CST 4:50 PM CST
Civil Twilight 7:13 AM CST 5:23 PM CST
Nautical Twilight 6:36 AM CST 5:59 PM CST
Astronomical Twilight 6:02 AM CST 6:34 PM CST
Moon 8:15 AM CST (12/3) 5:56 PM CST (12/3)
Length of Visible Light 10h 10m
Length of Day
9h 05m
New Moon, 1% of the Moon is Illuminated
Dec 3
New Moon
Dec 9
First Quarter
Dec 17
Full
Dec 25
Last Quarter
Jan 1
New

Hourly Weather History & Observations

Time (CST) Temp. Windchill Dew Point Humidity Pressure Visibility Wind Dir Wind Speed Gust Speed Precip Events Conditions
12:10 AM 24.8 °F 16.1 °F 24.8 °F 100% 29.57 in 0.5 mi NNE 8.1 mph - N/A Fog Light Freezing Fog
12:30 AM 24.8 °F 14.6 °F 24.8 °F 100% 29.56 in 2.0 mi North 10.4 mph - N/A   Overcast
12:50 AM 28.4 °F 18.5 °F 28.4 °F 100% 29.56 in 1.5 mi North 11.5 mph - N/A   Overcast
1:10 AM 30.2 °F 21.3 °F 30.2 °F 100% 29.57 in 0.5 mi NNE 10.4 mph - N/A Fog Light Freezing Fog
1:30 AM 30.2 °F 20.2 °F 30.2 °F 100% 29.57 in 0.8 mi North 12.7 mph - N/A   Overcast
1:50 AM 32.0 °F 22.1 °F 32.0 °F 100% 29.57 in 1.2 mi North 13.8 mph - N/A   Overcast
2:10 AM 32.0 °F 22.1 °F 32.0 °F 100% 29.57 in 0.8 mi NNE 13.8 mph 19.6 mph N/A   Overcast
2:30 AM 32.0 °F 22.1 °F 32.0 °F 100% 29.58 in 4.0 mi NNE 13.8 mph - N/A   Overcast
2:50 AM 30.2 °F 19.8 °F 30.2 °F 100% 29.59 in 10.0 mi NNE 13.8 mph - N/A   Overcast
3:10 AM 30.2 °F 19.8 °F 30.2 °F 100% 29.60 in 10.0 mi North 13.8 mph - N/A   Overcast
3:30 AM 30.2 °F 20.8 °F 30.2 °F 100% 29.59 in 10.0 mi NNE 11.5 mph - N/A   Overcast
3:50 AM 30.2 °F 20.8 °F 30.2 °F 100% 29.59 in 10.0 mi NNE 11.5 mph - N/A   Overcast
4:10 AM 28.4 °F 18.0 °F 28.4 °F 100% 29.60 in 10.0 mi North 12.7 mph - N/A   Overcast
4:30 AM 28.4 °F 17.5 °F 28.4 °F 100% 29.60 in 10.0 mi NNE 13.8 mph - N/A   Overcast
4:50 AM 28.4 °F 17.5 °F 28.4 °F 100% 29.61 in 10.0 mi North 13.8 mph - N/A   Overcast
5:10 AM 28.4 °F 18.5 °F 28.4 °F 100% 29.61 in 5.0 mi NNE 11.5 mph - N/A   Overcast
5:30 AM 28.4 °F 19.1 °F 28.4 °F 100% 29.61 in 4.0 mi NNE 10.4 mph - 0.06 in Snow Light Snow
5:50 AM 28.4 °F 19.7 °F 28.4 °F 100% 29.61 in 1.2 mi NNE 9.2 mph - 0.13 in Snow Light Snow
6:10 AM 28.4 °F 22.2 °F 28.4 °F 100% 29.61 in 2.5 mi NE 5.8 mph - 0.02 in Snow Light Snow
6:30 AM 28.4 °F 19.1 °F 28.4 °F 100% 29.61 in 5.0 mi NNE 10.4 mph - 0.02 in Snow Light Snow
6:50 AM 28.4 °F 20.4 °F 28.4 °F 100% 29.61 in 10.0 mi NE 8.1 mph - 0.02 in   Overcast
7:10 AM 28.4 °F 19.1 °F 28.4 °F 100% 29.60 in 10.0 mi NE 10.4 mph - N/A   Overcast
7:30 AM 28.4 °F 19.1 °F 28.4 °F 100% 29.61 in 10.0 mi NE 10.4 mph - N/A   Overcast
7:50 AM 28.4 °F 18.5 °F 28.4 °F 100% 29.61 in 10.0 mi NNE 11.5 mph - N/A   Overcast
8:10 AM 28.4 °F 17.5 °F 28.4 °F 100% 29.61 in 10.0 mi NNE 13.8 mph - N/A   Overcast
8:30 AM 28.4 °F 17.5 °F 28.4 °F 100% 29.63 in 10.0 mi NNE 13.8 mph - N/A   Overcast
8:50 AM 28.4 °F 17.0 °F 28.4 °F 100% 29.63 in 10.0 mi NNE 15.0 mph - N/A Rain Light Freezing Rain
9:10 AM 28.4 °F 17.5 °F 28.4 °F 100% 29.64 in 10.0 mi NNE 13.8 mph - N/A Rain Light Freezing Rain
9:30 AM 28.4 °F 17.0 °F 28.4 °F 100% 29.64 in 10.0 mi North 15.0 mph - N/A   Overcast
9:50 AM 28.4 °F 18.5 °F 28.4 °F 100% 29.66 in 10.0 mi North 11.5 mph - N/A   Overcast
10:10 AM 28.4 °F 17.5 °F 28.4 °F 100% 29.66 in 10.0 mi North 13.8 mph - N/A   Overcast
10:30 AM 28.4 °F 17.0 °F 28.4 °F 100% 29.66 in 10.0 mi NNE 15.0 mph - N/A Rain Light Freezing Rain
10:50 AM 28.4 °F 17.5 °F 28.4 °F 100% 29.67 in 10.0 mi NNE 13.8 mph - N/A Rain Light Freezing Rain
11:10 AM 28.4 °F 18.0 °F 28.4 °F 100% 29.66 in 10.0 mi NE 12.7 mph - N/A   Overcast
11:30 AM 28.4 °F 18.0 °F 28.4 °F 100% 29.67 in 10.0 mi NNE 12.7 mph 19.6 mph N/A   Overcast
11:50 AM 28.4 °F 18.5 °F 28.4 °F 100% 29.68 in 8.0 mi NNE 11.5 mph - N/A   Overcast
12:10 PM 28.4 °F 18.5 °F 28.4 °F 100% 29.68 in 6.0 mi North 11.5 mph - N/A   Overcast
12:30 PM 28.4 °F 18.5 °F 28.4 °F 100% 29.68 in 4.0 mi North 11.5 mph - N/A   Overcast
12:50 PM 28.4 °F 19.1 °F 28.4 °F 100% 29.67 in 8.0 mi NNE 10.4 mph - N/A   Overcast
1:10 PM 28.4 °F 19.1 °F 28.4 °F 100% 29.66 in 9.0 mi NNE 10.4 mph - N/A Rain Light Freezing Rain
1:30 PM 28.4 °F 18.0 °F 28.4 °F 100% 29.65 in 10.0 mi NNE 12.7 mph - N/A   Overcast
1:50 PM 28.4 °F 19.1 °F 28.4 °F 100% 29.66 in 10.0 mi North 10.4 mph - N/A Rain Light Freezing Rain
2:10 PM 28.4 °F 19.1 °F 28.4 °F 100% 29.67 in 7.0 mi North 10.4 mph - N/A   Overcast
2:30 PM 28.4 °F 18.0 °F 28.4 °F 100% 29.67 in 9.0 mi North 12.7 mph - N/A Rain Light Freezing Rain
2:50 PM 26.6 °F 15.7 °F 26.6 °F 100% 29.67 in 6.0 mi North 12.7 mph - N/A Rain Light Freezing Rain
3:10 PM 26.6 °F 16.2 °F 26.6 °F 100% 29.67 in 7.0 mi North 11.5 mph - N/A   Overcast
3:30 PM 26.6 °F 15.7 °F 26.6 °F 100% 29.69 in 9.0 mi North 12.7 mph - N/A   Overcast
3:50 PM 26.6 °F 15.2 °F 26.6 °F 100% 29.69 in 5.0 mi North 13.8 mph - N/A   Overcast
4:10 PM 26.6 °F 14.7 °F 26.6 °F 100% 29.71 in 1.8 mi North 15.0 mph 18.4 mph N/A   Overcast
4:30 PM 26.6 °F 15.2 °F 26.6 °F 100% 29.72 in 1.8 mi North 13.8 mph - N/A   Overcast
4:50 PM 26.6 °F 14.3 °F 26.6 °F 100% 29.72 in 1.5 mi North 16.1 mph 20.7 mph N/A   Overcast
5:10 PM 24.8 °F 13.4 °F 24.8 °F 100% 29.72 in 2.0 mi North 12.7 mph - N/A   Overcast
5:30 PM 24.8 °F 12.4 °F 24.8 °F 100% 29.73 in 2.0 mi North 15.0 mph - N/A   Overcast
5:50 PM 24.8 °F 12.4 °F 24.8 °F 100% 29.73 in 3.0 mi North 15.0 mph 19.6 mph N/A   Overcast
6:10 PM 24.8 °F 13.4 °F 24.8 °F 100% 29.72 in 3.0 mi North 12.7 mph - N/A Snow Light Snow
6:30 PM 24.8 °F 13.4 °F 24.8 °F 100% 29.71 in 4.0 mi North 12.7 mph - 0.01 in Snow Light Snow
6:50 PM 24.8 °F 13.4 °F 24.8 °F 100% 29.69 in 7.0 mi NNE 12.7 mph - 0.02 in Snow Light Snow
7:10 PM 24.8 °F 14.0 °F 24.8 °F 100% 29.71 in 10.0 mi NNE 11.5 mph - N/A Rain Light Freezing Rain
7:30 PM 24.8 °F 15.3 °F 24.8 °F 100% 29.73 in 10.0 mi North 9.2 mph - N/A   Overcast
7:50 PM 24.8 °F 14.6 °F 24.8 °F 100% 29.74 in 10.0 mi North 10.4 mph - N/A   Overcast
8:10 PM 24.8 °F 14.0 °F 24.8 °F 100% 29.74 in 10.0 mi North 11.5 mph - N/A Snow Light Snow
8:30 PM 24.8 °F 12.9 °F 24.8 °F 100% 29.73 in 1.0 mi North 13.8 mph - 0.14 in Snow Light Snow
8:50 PM 23.0 °F 11.7 °F 23.0 °F 100% 29.73 in 2.5 mi North 11.5 mph - 0.28 in Snow Light Snow
9:10 PM 23.0 °F 12.4 °F 23.0 °F 100% 29.74 in 9.0 mi North 10.4 mph - N/A Snow Light Snow
9:30 PM 23.0 °F 13.1 °F 23.0 °F 100% 29.74 in 10.0 mi North 9.2 mph - N/A   Unknown
9:50 PM 23.0 °F 11.1 °F 23.0 °F 100% 29.73 in 5.0 mi North 12.7 mph - 0.01 in Snow Light Snow
10:10 PM 23.0 °F 12.4 °F 23.0 °F 100% 29.73 in 1.5 mi North 10.4 mph - 0.04 in Snow Light Snow
10:30 PM 23.0 °F 12.4 °F 23.0 °F 100% 29.71 in 3.0 mi NNE 10.4 mph - 0.10 in Snow Light Snow
10:50 PM 23.0 °F 12.4 °F 23.0 °F 100% 29.71 in 6.0 mi North 10.4 mph - 0.11 in   Unknown
11:10 PM 23.0 °F 13.1 °F 23.0 °F 100% 29.70 in 2.5 mi North 9.2 mph - 0.02 in Snow Light Snow
11:30 PM 23.0 °F 13.1 °F 23.0 °F 100% 29.71 in 1.0 mi North 9.2 mph - 0.22 in Snow Light Snow
11:50 PM 23.0 °F 13.1 °F 23.0 °F 100% 29.72 in 0.8 mi NNW 9.2 mph - 0.61 in Snow Light Snow